sat.trackr.live / text

‹ back to catalog

POPACS 3

NORAD 39270 · 2013-055F

PAYLOAD ACTIVE UNKNOWN

§ Identity

Operator
Country
US
Launch date
2013-09-29
Launch site
AFWTR
Launch vehicle
Mass (kg)
RCS (m²)
0.02

Purposes: tech_demo

External: N2YO · Heavens-Above · Gunter

§ Orbital elements

Epoch: 2026-09-09T09:24:30.347424Z

Period
98.81 min
Inclination
81.0022°
Eccentricity
0.0546456
Mean motion
14.57342578 rev/d
Perigee alt
314.9 km
Apogee alt
1,088.7 km
Semi-major
7,079.9 km
B*
1.8558e-4
RAAN
137.7760°
Arg perigee
172.9476°
Mean anomaly
187.9840°
Rev number
65,081

§ Raw data

POPACS 31 39270U 13055F   26252.39201791  .00007902  00000+0  18558-3 0  99912 39270  81.0022 137.7760 0546456 172.9476 187.9840 14.57342578650816

JSON: /api/v1/satellites/39270 · /tle

For live sub-satellite position, see the globe view (requires WebGL).

§ Visibility from observer

Set your observer location to see the next 7 days of passes ≥ 10°. The values pass through the URL so the page stays shareable.

No JS? Fill the form by hand. The geolocation button needs JavaScript.